Flag for Pakistan Weather past 2 weeks in Islamabad, Pakistan

Now
86 °F

Passing clouds.


Feels Like: 93 °F
Forecast: 73 / 96 °F
Wind: 7 mph from Northeast

Location: Islamabad Airport

Current Time: Aug 30, 2015 at 9:45:59 AM

Latest Report: Aug 30, 2015 at 9:00 AM


Visibility: 4 mi

Pressure: 29.71 "Hg (27.91 "Hg at 554m altitude)

Humidity: 66%

Dew point: 73 °F

Location of IslamabadLocation

Historic Weather in Islamabad — Graph

°F

Islamabad temperature yesterday

Maximum temperature yesterday: 95 °F (at 2:00 PM)
Minimum temperature yesterday: 77 °F (at 2:00 AM)
Average temperature yesterday: 87 °F

Past Weeks' High & Low Weather Summary

 TemperatureHumidityPressure
High97 °F (Aug 18, 3:00 PM)89% (Aug 16, 12:00 AM)29.80 "Hg (Aug 16, 12:00 AM)
Low70 °F (Aug 20, 9:00 PM)32% (Aug 25, 6:00 PM)29.59 "Hg (Aug 22, 4:00 PM)
Average85 °F65%29.68 "Hg
* Reported Aug 15 2:00 PM — Aug 30 8:00 AM, Islamabad, Weather by CustomWeather, © 2015

Note: Actual official high and low records may vary slightly from our data, if they occured in-between our weather recording intervals... More about our weather records

Advertising

Islamabad weather history for previous 24 hours

 ConditionsComfort  
Time TempWeatherWind HumidityBarometerVisibility
8:00 AM
Sun, Aug 30
82 °FPassing clouds.7 mph70%29.71 "Hg4 mi
7:00 AM81 °FPassing clouds.No wind74%29.71 "Hg4 mi
6:00 AM77 °FPassing clouds.No wind83%29.68 "Hg4 mi
5:00 AM77 °FPassing clouds.No wind83%29.68 "Hg4 mi
3:00 AM79 °FPassing clouds.No wind79%29.65 "Hg4 mi
2:00 AM79 °FPassing clouds.No wind79%29.68 "Hg4 mi
1:00 AM81 °FPassing clouds.No wind70%29.68 "Hg4 mi
12:00 AM81 °FPassing clouds.No wind70%29.68 "Hg4 mi
10:00 PM
Sat, Aug 29
84 °FPassing clouds.5 mph62%29.68 "Hg4 mi
9:00 PM88 °FPassing clouds.5 mph52%29.68 "Hg4 mi
8:00 PM88 °FClear.7 mph52%29.65 "Hg4 mi
7:00 PM91 °FClear.7 mph49%29.65 "Hg4 mi
6:00 PM93 °FClear.5 mph47%29.65 "Hg4 mi
5:00 PM95 °FPassing clouds.7 mph44%29.65 "Hg4 mi
4:00 PM95 °FPassing clouds.9 mph44%29.65 "Hg4 mi
3:00 PM95 °FPassing clouds.9 mph44%29.65 "Hg4 mi
2:00 PM95 °FPassing clouds.9 mph41%29.68 "Hg4 mi
12:00 PM91 °FPassing clouds.7 mph44%29.71 "Hg4 mi
11:00 AM90 °FClear.5 mph46%29.71 "Hg4 mi
10:00 AM88 °FSunny.5 mph49%29.71 "Hg4 mi
Weather by CustomWeather, © 2015

See weather overviewHow to use our weather pages